Location: Venise Bay
(45.0825°N, 73.1481°W)
Time: 23:59:30
(UTC-05:00)

ISS - Pass Details

Date: 05 December 2021
Orbit: 413 x 423 km, 51.6° (Epoch: 20 January)

Event Time Altitude Azimuth Distance (km) Brightness Sun altitude
Rises 17:19:58 0° 300° (WNW) 2,383 0.7 -11.8°
Reaches altitude 10° 17:22:05 10° 302° (WNW) 1,514 -0.4 -12.1°
Maximum altitude 17:25:29 73° 28° (NNE) 445 -3.8 -12.7°
Enters shadow 17:28:00 17° 112° (ESE) 1,166 -2.0 -13.1°
